Home   Weather   Camagüey   Past weeks

Flag for Cuba Past Weather in Camagüey, Cuba — Yesterday and Last 2 Weeks

Now
81 °F

Passing clouds.


Feels Like: 84 °F
Forecast: 73 / 92 °F
Wind: 15 mph from East

Location: Camaguey Aeropuerto

Current Time: May 29, 2017 at 9:33:18 am

Latest Report: May 29, 2017 at 8:51 am


Visibility: 6 mi

Pressure: 30.07 "Hg

Humidity: 70%

Dew Point: 70 °F

Location of CamagüeyLocation

Past Weather in Camagüey — Graph

°F

Camagüey Temperature Yesterday

Maximum temperature yesterday: 91 °F (at 2:50 pm)
Minimum temperature yesterday: 72 °F (at 1:50 am)
Average temperature yesterday: 80 °F

High & Low Weather Summary for the Past Weeks

 TemperatureHumidityPressure
High93 °F (May 25, 1:51 pm)100% (May 17, 10:51 pm)30.09 "Hg (May 17, 10:51 pm)
Low70 °F (May 15, 4:54 pm)30% (May 27, 3:50 pm)29.92 "Hg (May 14, 3:50 pm)
Average79 °F75%30.00 "Hg
* Reported May 14 7:50 am — May 29 7:53 am, Camagüey. Weather by CustomWeather, © 2017

Note: Actual official high and low records may vary slightly from our data, if they occured in-between our weather recording intervals... More about our weather records

Advertising

Camagüey Weather History for the Previous 24 Hours

Scroll right to see more
 ConditionsComfort  
Time TempWeatherWind HumidityBarometerVisibility
7:53 am
Mon, May 29
75 °FPassing clouds.9 mph94%30.07 "Hg6 mi
6:50 am73 °FPassing clouds.8 mph94%30.04 "Hg4 mi
5:52 am73 °FPassing clouds.7 mph94%30.04 "Hg6 mi
4:51 am73 °FPassing clouds.6 mph94%30.04 "Hg6 mi
3:50 am73 °FPassing clouds.6 mph94%30.04 "Hg6 mi
2:50 am73 °FClear.6 mph89%30.04 "Hg6 mi
1:51 am73 °FClear.5 mph94%30.07 "Hg6 mi
12:52 am75 °FPassing clouds.5 mph89%30.07 "Hg6 mi
11:50 pm
Sun, May 28
77 °FPassing clouds.6 mph83%30.09 "Hg6 mi
10:50 pm77 °FPassing clouds.6 mph83%30.09 "Hg6 mi
9:50 pm79 °FPassing clouds.7 mph79%30.07 "Hg6 mi
7:53 pm81 °FPassing clouds.14 mph70%30.04 "Hg6 mi
6:51 pm84 °FPassing clouds.14 mph62%30.01 "Hg6 mi
5:50 pm86 °FScattered clouds.14 mph59%30.01 "Hg6 mi
4:50 pm90 °FScattered clouds.14 mph49%30.01 "Hg6 mi
3:50 pm91 °FScattered clouds.3 mph36%30.01 "Hg6 mi
2:50 pm91 °FScattered clouds.5 mph38%30.04 "Hg6 mi
1:50 pm90 °FScattered clouds.10 mph38%30.04 "Hg6 mi
12:50 pm88 °FPassing clouds.10 mph43%30.07 "Hg6 mi
11:50 am86 °FPassing clouds.13 mph49%30.07 "Hg6 mi
10:50 am84 °FScattered clouds.14 mph58%30.07 "Hg6 mi
9:50 am81 °FScattered clouds.12 mph70%30.07 "Hg6 mi
Weather by CustomWeather, © 2017

See weather overviewHow to use our weather pages